Regional Weather Roundup
Issued by NWS

Home | Current Version | Previous Version | Text Only | Print | Product List | Glossary Off
Versions: 1 2 3 4 5 6 7 8 9 10 11 12 13 14 15 16 17 18 19 20 21 22 23 24 25 26 27 28 29 30 31 32 33 34 35 36 37 38 39 40 41 42 43 44 45 46 47 48 49 50

000
ASUS43 KFSD 140010
RWRSD

WEATHER ROUNDUP FOR SOUTH DAKOTA
NATIONAL WEATHER SERVICE SIOUX FALLS SD
600 PM CST SAT FEB 13 2016

NOTE: "FAIR" INDICATES FEW OR NO CLOUDS BELOW 12,000 FEET WITH NO
SIGNIFICANT WEATHER AND/OR OBSTRUCTIONS TO VISIBILITY.


SDZ001>005-009-010-012>017-140100-
NORTHWEST AND NORTH CENTRAL SOUTH DAKOTA

CITY           SKY/WX    TMP DP  RH WIND       PRES   REMARKS
BUFFALO          N/A     35  32  88 NW13      29.76F WCI  26
FAITH            N/A     30  27  88 N7        29.83R WCI  23
MOBRIDGE       CLOUDY    21  16  81 SE13      29.89R WCI   9
$$

SDZ012>016-024>037-041>051-057-063-072>074-140100-
SOUTHWEST AND SOUTH CENTRAL SOUTH DAKOTA

CITY           SKY/WX    TMP DP  RH WIND       PRES   REMARKS
RAPID CTY ARPT RAIN      39  35  86 NW40G52   29.80R
PIERRE         CLOUDY    27  23  85 SE24      29.85F WCI  12
CUSTER         CLEAR     47  26  44 NW15G32   29.74R
ELLSWORTH AFB  HVY RAIN  37  36  93 NW28G45   29.81  FOG
PHILIP         CLEAR     38  29  70 E9        29.74F
PINE RIDGE     CLEAR     45  33  63 S10       29.71F
SPEARFISH      HVY SNOW  32  32 100 W16G23    29.90R WCI  21
WINNER         CLOUDY    29  19  66 S21       29.92F WCI  16
$$

SDZ004>011-016>023-039-040-140100-
NORTHEAST SOUTH DAKOTA

CITY           SKY/WX    TMP DP  RH WIND       PRES   REMARKS
ABERDEEN       LGT SNOW  15   7  70 SE23G33   30.07F VSB 1   WCI  -3
WATERTOWN      CLOUDY    10  -1  61 SE20G28   30.11F WCI  -9
BROOKINGS      CLOUDY     9   0  67 SE24G32   30.15F WCI -12
SISSETON         N/A     10   2  69 S22       30.18F WCI -10
$$

SDZ017-020-022-023-036>040-048>070-140100-
SOUTHEAST SOUTH DAKOTA

CITY           SKY/WX    TMP DP  RH WIND       PRES   REMARKS
SIOUX FALLS    CLOUDY    11   3  70 SE14      30.21F WCI  -5
HURON          CLOUDY    14   5  67 SE21G29   30.11F WCI  -4
CHAMBERLAIN    CLOUDY    25  18  76 S21       29.99F WCI  10
MITCHELL       CLOUDY    14   8  77 S26G33    30.15F WCI  -6
YANKTON        CLOUDY    12   7  79 SE20      30.19F WCI  -6
$$

ABBREVIATIONS USED IN REMARKS
   TC - TEMPERATURE IN CELSIUS
  WCI - WIND CHILL INDEX
   HX - HEAT INDEX
  VSB - VISIBILITY




USA.gov is the U.S. government's official web portal to all federal, state and local government web resources and services.